Location: Riverside Cemetery
(38.3047°N, 99.7773°W)
Time: 06:46:52
(UTC+00:00)

USA 267 - Pass Details

Date: 19 September 2020
Orbit: 1101 x 1106 km, 123.0° (Epoch: 22 September)

Event Time Altitude Azimuth Distance (km) Brightness Sun altitude
Rises 09:42:33 0° 41° (NE) 3,923 7.2 -31.2°
Reaches altitude 10° 09:45:10 10° 35° (NE) 2,964 6.3 -30.7°
Maximum altitude 09:51:13 42° 327° (NNW) 1,524 3.9 -29.7°
Enters shadow 09:51:38 42° 317° (NW) 1,534 3.8 -29.6°
